Terminal Aerodrome Forecast
Issued by NWS Chicago, IL

Home | Current Version | Previous Version | Graphics & Text | Print | Product List | Glossary On
Versions: 1 2 3 4 5 6 7 8 9 10 11 12 13 14 15 16 17 18 19 20 21 22 23 24 25 26 27 28 29 30 31 32
000
FTUS43 KLOT 230900 AAA
TAFRFD
TAF AMD
KRFD 230902Z 2309/2406 04014KT P6SM SCT030 BKN050
      TEMPO 2309/2310 BKN025
     FM231400 02012G18KT P6SM SCT040
     FM240000 10005KT P6SM SCT050 BKN200=

USA.gov is the U.S. government's official web portal to all federal, state and local government web resources and services.